NANOSATC-BR1

Last updated on Fri Oct 31 2025 00:03:50 GMT+0000 (Coordinated Universal Time)

1 40024U 14033Q 25302.98649772 .00021231 00000+0 91343-3 0 9996 2 40024 98.0934 311.2371 0002013 263.5387 96.5619 15.22659514618846
UTC large
Height (km)
Speed (km/s)
/
Latitude / Longitude
Inclination (degrees)
Orbital Period (minutes)
Azimuth
Elevation
Range (km)
Doppler Factor

Next 0 passes for location: London (51.5072 / 0.1276)

Sorry there are no passes over London.